User: anonymous   Login
Location: Unspecified
(0.0000°N, 0.0000°E)
Time: 10:50:16
(UTC+02:00)
Language:

ARIANE DEB (SPELDA) - Orbit

View from above orbital plane
View from above orbital plane
View from above satellite
View from above satellite

Ground track
Ground track

The orbit data is extracted from the following two-line orbital elements,

1 27402U 02015D   17144.32249717 +.00002524 +00000-0 +15674-2 0  9993
2 27402 003.4076 123.9494 7099190 310.8031 006.4812 02.48859076133490
Epoch (UTC): 24 May 2017 07:44:23
Eccentricity: 0.7099190
inclination: 3.4076°
perigee height: 294 km
apogee height: 32953 km
right ascension of ascending node: 123.9494°
argument of perigee: 310.8031°
revolutions per day: 2.48859076
mean anomaly at epoch: 6.4812°
orbit number at epoch: 13349

The dashed part of the orbit path shows where the satellite is in the earth's shadow,  

DLR